Location: Unspecified
(33.6682°S, 0.0000°E)
Time: 03:49:41
(UTC+00:00)

Vanguard 1 - Pass Details

Date: 26 June 2019
Orbit: 653 x 3830 km, 34.3° (Epoch: 18 July)

Event Time Altitude Azimuth Distance (km) Brightness Sun altitude
Rises 19:11:51 0° 255° (WSW) 5,032 14.7 -26.5°
Reaches altitude 10° 19:14:35 10° 259° (WSW) 4,363 14.2 -27.1°
Maximum altitude 19:27:22 63° 335° (NNW) 3,108 12.5 -29.7°
Enters shadow 19:47:10 13° 49° (NE) 6,537 13.9 -33.7°
